Home > Weather > Eindhoven > Past weeks

Flag for Netherlands Weather for the Past 2 Weeks in Eindhoven, Netherlands

Now
54 °F

Passing clouds.


Feels Like: 52 °F
Forecast: 34 / 60 °F
Wind: 7 mph from South

Location: Eindhoven Airport

Current Time: May 3, 2016 at 3:18:27 AM

Latest Report: May 3, 2016 at 2:25 AM


Visibility: N/A

Pressure: 30.07 "Hg

Humidity: 82%

Dew Point: 48 °F

Location of EindhovenLocation

Historic Weather in Eindhoven — Graph

°F

Eindhoven Temperature Yesterday

Maximum temperature yesterday: 66 °F (at 1:55 PM)
Minimum temperature yesterday: 34 °F (at 4:55 AM)
Average temperature yesterday: 54 °F

High & Low Weather Summary for the Past Weeks

 TemperatureHumidityPressure
High66 °F (Apr 21, 2:55 PM)100% (Apr 18, 1:25 AM)30.48 "Hg (Apr 18, 1:25 AM)
Low30 °F (Apr 18, 5:55 AM)32% (Apr 21, 2:55 PM)29.50 "Hg (Apr 26, 7:55 AM)
Average46 °F71%30.04 "Hg
* Reported Apr 18 1:25 AM — May 3 1:55 AM, Eindhoven, Weather by CustomWeather, © 2016

Note: Actual official high and low records may vary slightly from our data, if they occured in-between our weather recording intervals... More about our weather records

Advertising

Eindhoven Weather History for the Previous 24 Hours

Scroll right to see more
 ConditionsComfort  
Time TempWeatherWind HumidityBarometerVisibility
1:55 AM
Tue, May 3
54 °FMostly cloudy.7 mph82%30.07 "HgN/A
1:25 AM54 °FOvercast.7 mph88%30.07 "HgN/A
12:55 AM54 °FPartly cloudy.7 mph88%30.09 "HgN/A
11:55 PM
Mon, May 2
54 °FLight rain. Mostly cloudy.8 mph88%30.09 "HgN/A
11:25 PM55 °FDrizzle. Overcast.12 mph77%30.09 "HgN/A
10:55 PM55 °FPassing clouds.5 mph82%30.09 "HgN/A
10:25 PM55 °FOvercast.3 mph82%30.09 "HgN/A
9:55 PM57 °FBroken clouds.7 mph77%30.09 "HgN/A
9:25 PM57 °FOvercast.7 mph63%30.09 "HgN/A
8:55 PM57 °FOvercast.6 mph48%30.09 "HgN/A
8:25 PM59 °FOvercast.6 mph39%30.09 "HgN/A
7:55 PM63 °FOvercast.7 mph34%30.09 "HgN/A
6:55 PM63 °FScattered clouds.9 mph32%30.09 "HgN/A
6:25 PM64 °FOvercast.9 mph40%30.12 "HgN/A
5:55 PM64 °FMild.10 mph43%30.12 "HgN/A
5:25 PM64 °FPartly sunny.13 mph40%30.12 "HgN/A
4:55 PM64 °FScattered clouds.12 mph40%30.12 "HgN/A
4:25 PM66 °FPartly sunny.9 mph46%30.15 "HgN/A
3:55 PM64 °FOvercast.8 mph46%30.15 "HgN/A
3:25 PM64 °FOvercast.7 mph46%30.15 "HgN/A
2:55 PM66 °FMild.10 mph43%30.18 "HgN/A
2:25 PM66 °FPartly sunny.9 mph46%30.18 "HgN/A
1:55 PM66 °FPassing clouds.12 mph43%30.18 "HgN/A
1:25 PM64 °FMild.10 mph49%30.21 "HgN/A
12:55 PM63 °FMild.7 mph52%30.21 "HgN/A
12:25 PM63 °FMild.6 mph52%30.24 "HgN/A
11:55 AM61 °FScattered clouds.6 mph52%30.24 "HgN/A
11:25 AM59 °FRefreshingly cool.7 mph51%30.24 "HgN/A
10:55 AM57 °FPassing clouds.7 mph55%30.27 "HgN/A
10:25 AM57 °FRefreshingly cool.6 mph51%30.27 "HgN/A
9:55 AM54 °FPassing clouds.5 mph58%30.27 "HgN/A
9:25 AM52 °FPassing clouds.3 mph72%30.27 "HgN/A
8:55 AM48 °FPassing clouds.2 mph76%30.27 "HgN/A
8:25 AM46 °FPassing clouds.1 mph76%30.27 "HgN/A
6:55 AM34 °FChilly.1 mph100%30.30 "HgN/A
5:55 AM36 °FChilly.2 mph93%30.30 "HgN/A
5:25 AM36 °FChilly.1 mph93%30.30 "HgN/A
4:55 AM34 °FChilly.2 mph93%30.30 "HgN/A
3:55 AM36 °FChilly.2 mph87%30.33 "HgN/A
3:25 AM36 °FChilly.1 mph93%30.33 "HgN/A
Weather by CustomWeather, © 2016

See weather overviewHow to use our weather pages